Location: Betz
(49.1556°N, 2.9558°E)
Time: 02:25:08
(UTC+00:00)

DMSP B5D2-2 - Pass Details

Date: 18 September 2019
Orbit: 791 x 805 km, 98.4° (Epoch: 16 October)

Event Time Altitude Azimuth Distance (km) Brightness Sun altitude
Rises 19:57:59 0° 18° (NNE) 3,333 7.4 -20.0°
Reaches altitude 10° 20:00:26 10° 25° (NNE) 2,398 6.6 -20.3°
Maximum altitude 20:05:32 47° 99° (E) 1,066 4.3 -21.1°
Enters shadow 20:06:03 45° 116° (ESE) 1,087 4.3 -21.1°
